This is the latest recevied weather packets stored in our database for station/object KC8UZG. If no packets are shown the sender has not sent any weather packets the latest 10 day(s).
| Time | Temp. | Humidity | Pressure | Rain* | Wind** | Luminosity | Snow |
|---|---|---|---|---|---|---|---|
| 1778084735 | 13.89° C | 66% | 1012.5 hPa | 0 mm | - | 285 W/m² | - |
| 1778084141 | 13.89° C | 65% | 1012.5 hPa | 0 mm | - | 307 W/m² | - |
| 1778083519 | 13.89° C | 68% | 1012.6 hPa | 0 mm | - | 297 W/m² | - |
| 1778082926 | 13.33° C | 70% | 1012.3 hPa | 0 mm | - | 415 W/m² | - |
| 1778082331 | 12.78° C | 70% | 1012.2 hPa | 0 mm | - | 290 W/m² | - |
| 1778081737 | 13.33° C | 72% | 1012.5 hPa | 0 mm | - | 255 W/m² | - |
| 1778081117 | 12.22° C | 73% | 1012.3 hPa | 0 mm | - | 342 W/m² | - |
| 1778080522 | 12.22° C | 73% | 1011.9 hPa | 0 mm | - | 225 W/m² | - |
| 1778079929 | 12.22° C | 76% | 1011.7 hPa | 0 mm | - | 184 W/m² | - |
| 1778079335 | 12.22° C | 76% | 1011.5 hPa | 0 mm | - | 365 W/m² | - |
| 1778078741 | 11.67° C | 78% | 1011.2 hPa | 0 mm | - | 353 W/m² | - |
| 1778078120 | 10.56° C | 79% | 1011.5 hPa | 0 mm | - | 325 W/m² | - |
| 1778077525 | 10° C | 80% | 1011.5 hPa | 0 mm | - | 95 W/m² | - |
| 1778076931 | 10° C | 80% | 1011.5 hPa | 0 mm | - | 43 W/m² | - |
| 1778076338 | 10° C | 86% | 1011.3 hPa | 0 mm | - | 46 W/m² | - |
| 1778075716 | 9.44° C | 86% | 1011.4 hPa | 0 mm | - | 89 W/m² | - |
| 1778075122 | 8.89° C | 87% | 1011.4 hPa | 0 mm | - | 99 W/m² | - |
| 1778074529 | 8.89° C | 90% | 1011.1 hPa | 0 mm | - | 89 W/m² | - |
| 1778073934 | 8.33° C | 93% | 1010.9 hPa | 0 mm | - | 87 W/m² | - |
| 1778073341 | 8.33° C | 94% | 1010.9 hPa | 0 mm | - | 73 W/m² | - |
| 1778072719 | 7.78° C | 95% | 1010.8 hPa | 0 mm | - | 61 W/m² | - |
| 1778072125 | 7.78° C | 97% | - | 0 mm | - | 52 W/m² | - |
| 1778071531 | 7.22° C | 98% | 1010.8 hPa | 0 mm | - | 44 W/m² | - |
| 1778070937 | 7.22° C | 99% | 1010.8 hPa | 0 mm | - | 37 W/m² | - |
| 1778070316 | 6.67° C | 99% | 1010.4 hPa | 0 mm | - | 35 W/m² | - |
* Rain latest hour (hover to see other rain measurements)
** Current wind speed in m/s (hover to see current wind gust speed)